sat.trackr.live / text

‹ back to catalog

STARLINK-35312

NORAD 65866 · 2025-223N

PAYLOAD ACTIVE UNKNOWN

§ Identity

Operator
Country
US
Launch date
2025-10-03
Launch site
AFWTR
Launch vehicle
Mass (kg)
RCS (m²)

Purposes: comms

External: N2YO · Heavens-Above · Gunter

§ Orbital elements

Epoch: 2026-09-20T22:53:38.666400Z

Period
93.85 min
Inclination
53.1588°
Eccentricity
0.0001007
Mean motion
15.34401198 rev/d
Perigee alt
462.0 km
Apogee alt
463.4 km
Semi-major
6,840.8 km
B*
5.9538e-4
RAAN
103.4916°
Arg perigee
89.8241°
Mean anomaly
270.2877°
Rev number
5,415

§ Raw data

STARLINK-353121 65866U 25223N   26263.95391975  .00019793  00000+0  59538-3 0  99932 65866  53.1588 103.4916 0001007  89.8241 270.2877 15.34401198 54151

JSON: /api/v1/satellites/65866 · /tle

For live sub-satellite position, see the globe view (requires WebGL).

§ Visibility from observer

Set your observer location to see the next 7 days of passes ≥ 10°. The values pass through the URL so the page stays shareable.

No JS? Fill the form by hand. The geolocation button needs JavaScript.